ARKTIKA-M 1

Last updated on Fri Sep 05 2025 00:02:21 GMT+0000 (Coordinated Universal Time)

1 47719U 21016A 25246.38975133 -.00000134 00000+0 00000+0 0 9993 2 47719 63.1607 97.4931 7149598 268.8202 16.1856 2.00602919 33032
UTC large
Height (km)
Speed (km/s)
/
Latitude / Longitude
Inclination (degrees)
Orbital Period (minutes)
Azimuth
Elevation
Range (km)
Doppler Factor

Next 0 passes for location: London (51.5072 / 0.1276)

Sorry there are no passes over London.